Regional Weather Roundup
Issued by NWS

Home | Current Version | Previous Version | Text Only | Print | Product List | Glossary Off
Versions: 1 2 3 4 5 6 7 8 9 10 11 12 13 14 15 16 17 18 19 20 21 22 23 24 25 26 27 28 29 30 31 32 33 34 35 36 37 38 39 40 41 42 43 44 45 46 47 48 49 50

000
ASUS43 KDTX 271010
RWRMI
MICHIGAN HOURLY REGIONAL WEATHER ROUNDUP
NATIONAL WEATHER SERVICE DETROIT/PONTIAC MI
500 AM EST TUE JAN 27 2015

NOTE: "FAIR" INDICATES FEW OR NO CLOUDS BELOW 12,000 FEET WITH NO
SIGNIFICANT WEATHER AND/OR OBSTRUCTION TO VISIBILITY.

MIZ047>049-052>055-059>063-066>070-074>076-081>083-271100-
SOUTHEAST LOWER MICHIGAN

CITY           SKY/WX    TMP DP  RH WIND       PRES   REMARKS
ADRIAN         CLOUDY    15  11  83 N6        29.99R
ALMA           MOCLDY    14  11  87 N5        30.04R
ANN ARBOR      CLEAR     13   9  84 N3        29.99R
BAD AXE        CLEAR      0  -3  89 CALM      30.03S
DETROIT CITY   CLEAR     14   7  73 N6        30.00S
DETROIT        PTCLDY    12   9  87 N5        30.00S
FLINT          CLEAR      8   4  83 NW3       30.02R
GROSSE ILE     CLEAR     10   9  92 N3        29.98S
HILLSDALE      CLOUDY    17  11  79 CALM      29.95R
HOWELL         CLEAR      9   8  93 N3        29.99R

CITY           SKY/WX    TMP DP  RH WIND       PRES   REMARKS
JACKSON        CLOUDY    16  11  80 NE5       29.98R
LAMBERTVILLE   PTCLDY    10   5  79 CALM      29.99S
LANSING        MOCLDY    14  10  84 NE5       30.02R
LAPEER         NOT AVBL
MASON          CLOUDY    14  10  86 NE3       30.00R
MONROE         CLEAR     10   9  92 N6        29.98R
MT. CLEMENS    CLEAR      9   5  85 N6        29.98S
PONTIAC        CLEAR      8   5  87 N3        29.97S
PORT HOPE        N/A     21  11  65 NE17      30.02S
PORT HURON     FLURRIES   3   0  85 CALM      30.01R
TRI CITIES     PTCLDY    14   8  77 N6        30.05R
YPSILANTI      CLEAR     13   6  74 N5        30.00R
$$
MIZ043>046-050>051-056>058-064>065-071>073-077>080-271100-
SOUTHWEST LOWER MICHIGAN

CITY           SKY/WX    TMP DP  RH WIND       PRES   REMARKS
BATTLE CREEK   CLOUDY    20  10  65 NE6       29.99R
BENTON HARBOR  CLOUDY    22  10  60 NE5       30.00R
BIG RAPIDS     CLOUDY    18  11  75 CALM      30.02R
COLDWATER      CLOUDY    18  11  75 E5        29.97R
HOLLAND        CLOUDY    21  12  68 NE5       30.02R
GRAND RAPIDS   CLOUDY    18  11  74 NE8       30.02R
KALAMAZOO      CLOUDY    20  10  65 NE6       29.99R
MARSHALL       CLOUDY    17  11  78 CALM      29.98R
MUSKEGON       CLOUDY    20  12  71 E7        30.04R
$$
MIZ016>042-271100-
NORTHERN LOWER MICHIGAN

CITY           SKY/WX    TMP DP  RH WIND       PRES   REMARKS
ALPENA         MOCLDY    17  12  80 NE8       30.09R
BEAVER ISLAND  CLEAR     13   9  85 CALM      30.12R
BELLAIRE       CLOUDY    17  11  79 CALM      30.09R
CADILLAC       MOCLDY    15   9  79 NE5       30.00R
CHARLEVOIX     PTCLDY    17  11  79 CALM      30.12R
FRANKFORT      MOSUNNY   17  12  79 CALM      30.08R
GAYLORD        CLOUDY    15  11  83 NE5       30.02R
GRAYLING       CLOUDY    16  12  86 NE3       30.04R
HARBOR SPRINGS FLURRIES  17  13  86 NE5       30.09R
HOUGHTON LAKE  CLOUDY    15   8  73 N5        30.03R
MANISTEE       PTCLDY    18   9  68 E5        30.06R
OSCODA         MOCLDY    12  10  89 NW6       30.05R
PELLSTON       MOCLDY    16  12  84 NE6       30.11R
TRAVERSE CITY  PTCLDY    17  10  74 CALM      30.06R
$$
MIZ007>008-015-271100-
EASTERN UPPER MICHIGAN

CITY           SKY/WX    TMP DP  RH WIND       PRES   REMARKS
KINROSS        CLEAR      7   1  78 E5        30.12R
MACKINAC ISLAN PTCLDY    12   6  78 NE13      30.11R WCI  -3
NEWBERRY       CLEAR      5   1  83 CALM      30.11S
S. S. MARIE    CLEAR      7  -2  66 NE3       30.14R
$$
MIZ004>006-011>014-085-271100-
CENTRAL UPPER MICHIGAN

CITY           SKY/WX    TMP DP  RH WIND       PRES   REMARKS
MANISTIQUE     PTCLDY     9   7  92 E6        30.10S
ESCANABA       CLOUDY    19  18  93 CALM      30.08R
MENOMINEE      CLOUDY    18  16  93 CALM      30.07R
SAWYER-GWINN   LGT SNOW  16  14  90 CALM      30.05R
$$
MIZ001>003-009>011-084-271100-
WESTERN UPPER MICHIGAN

CITY           SKY/WX    TMP DP  RH WIND       PRES   REMARKS
IRON MOUNTAIN  CLOUDY    19  16  88 CALM      30.05R
HOUGHTON       CLOUDY    20  16  84 CALM      30.05R
COPPER HARBOR    N/A     24  17  74 S5        30.09R
IRONWOOD       CLOUDY    19  18  93 CALM      30.02R
$$

ABBREVIATIONS USED IN REMARKS
   TC - TEMPERATURE IN CELSIUS
  WCI - WIND CHILL INDEX
   HX - HEAT INDEX
  VSB - VISIBILITY




USA.gov is the U.S. government's official web portal to all federal, state and local government web resources and services.